Weather in Gdynia

Poland     54°30′29″N   18°32′35″E
temp.,
°C
wind,
m/s
gust,
m/s
humid.,
%
clouds,
%
prec.,
mm/h
press.,
hPa
HPBL,
m
16 may, sun
sun1623:00+9se389589 0.0 1007145
02:00+9s2393100 0.1 100650
05:00+10se3897100 2.7 1005224
08:00+10se3896100 3.6 1005297
11:00+10se2497100 2.3 1005159
14:00+13se4581100 3.0 1004726
17:00+13se2489100 1.2 1002276
20:00+11nnw1295100 3.8 100240
17 may, mon
mon1723:00+10sw2294100 0.0 100225
02:00+9sw36940 0.0 1002101
05:00+8sw36930 0.0 1003105
08:00+12s46795 0.0 1004276
11:00+15s456388 0.3 10041056
14:00+16s3562100 1.2 10041186
17:00+16ssw3354100 0.1 10041058
20:00+14s3671100 0.1 1005134
18 may, tue
tue1823:00+11sw2583100 0.1 1005137
02:00+11nw3695100 2.2 1004187
05:00+10wnw3698100 4.4 1004290
08:00+10nw4796100 9.1 1005357
11:00+10nw3795100 1.1 1006366
14:00+12nnw4580100 1.3 1007653
17:00+12nnw4573100 0.0 1008576
20:00+10nnw3583100 0.0 1009215
19 may, wed
wed1923:00+8wnw2390100 0.0 100946
02:00+7w379410 0.0 1010130
05:00+7w498912 0.0 1010218
08:00+11wnw577642 0.0 1011391
11:00+14nw356097 0.0 10111082
14:00+14nw565514 0.1 10111117
17:00+13nw56563 0.0 1011942
20:00+11nw377156 0.0 1012279
20 may, thu
thu2023:00+8wnw498051 0.0 1013250
02:00+7w5117988 0.0 1013255
05:00+8wnw61379100 0.0 1012362
08:00+11wnw6126799 0.0 1013464
11:00+14nw795210 0.0 1013853
14:00+15nw675337 0.0 10141400
17:00+13wnw785843 0.0 10141105
20:00+10w510680 0.0 1015604